Time,TemperatureF,DewpointF,PressureIn,WindDirection,WindDirectionDegrees,WindSpeedMPH,WindSpeedGustMPH,Humidity,HourlyPrecipIn,Conditions,Clouds,dailyrainin,SolarRadiationWatts/m^2,SoftwareType,DateUTC
2013-01-17 00:02:00,68.0,62.0,-100.00,ENE,66,6.0,7.0,80,0.00,,,0.01,0.000000,,2013-01-17 10:02:00,
2013-01-17 00:11:00,68.0,62.0,-100.00,ENE,66,6.0,7.0,80,0.00,,,0.01,0.000000,,2013-01-17 10:11:00,
2013-01-17 00:33:00,68.0,61.0,-100.00,ESE,104,4.0,7.0,78,0.00,,,0.01,0.000000,,2013-01-17 10:33:00,
2013-01-17 00:43:00,68.0,61.0,-100.00,ESE,104,4.0,7.0,78,0.00,,,0.01,0.000000,,2013-01-17 10:43:00,
2013-01-17 00:53:00,68.0,61.0,-100.00,ESE,104,4.0,7.0,78,0.00,,,0.01,0.000000,,2013-01-17 10:53:00,
2013-01-17 01:02:00,68.0,61.0,-100.00,ESE,104,4.0,7.0,78,0.00,,,0.01,0.000000,,2013-01-17 11:02:00,
2013-01-17 01:11:00,68.0,61.0,-100.00,ESE,104,4.0,7.0,78,0.00,,,0.01,0.000000,,2013-01-17 11:11:00,
2013-01-17 01:33:00,67.0,60.0,-100.00,WNW,291,0.0,5.0,77,0.00,,,-99.99,0.000000,,2013-01-17 11:33:00,
2013-01-17 01:43:00,67.0,60.0,-100.00,WNW,291,0.0,5.0,77,0.00,,,-99.99,0.000000,,2013-01-17 11:43:00,
2013-01-17 01:53:00,67.0,60.0,-100.00,WNW,291,0.0,5.0,77,0.00,,,-99.99,0.000000,,2013-01-17 11:53:00,
2013-01-17 02:02:00,67.0,60.0,-100.00,WNW,291,0.0,5.0,77,0.00,,,-99.99,0.000000,,2013-01-17 12:02:00,
2013-01-17 02:12:00,67.0,60.0,-100.00,WNW,291,0.0,5.0,77,0.00,,,-99.99,0.000000,,2013-01-17 12:12:00,
2013-01-17 02:33:00,65.0,60.0,-100.00,East,90,1.0,5.0,84,0.00,,,0.00,0.000000,,2013-01-17 12:33:00,
2013-01-17 02:43:00,65.0,60.0,-100.00,East,90,1.0,5.0,84,0.00,,,0.00,0.000000,,2013-01-17 12:43:00,
2013-01-17 02:53:00,65.0,60.0,-100.00,East,90,1.0,5.0,84,0.00,,,0.00,0.000000,,2013-01-17 12:53:00,
2013-01-17 03:03:00,65.0,60.0,-100.00,East,90,1.0,5.0,84,0.00,,,0.00,0.000000,,2013-01-17 13:03:00,
2013-01-17 03:12:00,65.0,60.0,-100.00,East,90,1.0,5.0,84,0.00,,,0.00,0.000000,,2013-01-17 13:12:00,
2013-01-17 03:33:00,64.0,60.0,-100.00,ESE,115,2.0,5.0,86,0.00,,,0.00,0.000000,,2013-01-17 13:33:00,
2013-01-17 03:43:00,64.0,60.0,-100.00,ESE,115,2.0,5.0,86,0.00,,,0.00,0.000000,,2013-01-17 13:43:00,
2013-01-17 03:53:00,64.0,60.0,-100.00,ESE,115,2.0,5.0,86,0.00,,,0.00,0.000000,,2013-01-17 13:53:00,
2013-01-17 04:03:00,64.0,60.0,-100.00,ESE,115,2.0,5.0,86,0.00,,,0.00,0.000000,,2013-01-17 14:03:00,
2013-01-17 04:12:00,64.0,60.0,-100.00,ESE,115,2.0,5.0,86,0.00,,,0.00,0.000000,,2013-01-17 14:12:00,
2013-01-17 04:33:00,64.0,61.0,-100.00,NE,45,3.0,5.0,89,0.00,,,0.00,0.000000,,2013-01-17 14:33:00,
2013-01-17 04:43:00,64.0,61.0,-100.00,NE,45,3.0,5.0,89,0.00,,,0.00,0.000000,,2013-01-17 14:43:00,
2013-01-17 04:53:00,64.0,61.0,-100.00,NE,45,3.0,5.0,89,0.00,,,0.00,0.000000,,2013-01-17 14:53:00,
2013-01-17 05:03:00,64.0,61.0,-100.00,NE,45,3.0,5.0,89,0.00,,,0.00,0.000000,,2013-01-17 15:03:00,
2013-01-17 05:12:00,64.0,61.0,-100.00,NE,45,3.0,5.0,89,0.00,,,0.00,0.000000,,2013-01-17 15:12:00,
2013-01-17 05:33:00,64.0,59.0,-100.00,East,86,2.0,6.0,85,0.00,,,0.00,0.000000,,2013-01-17 15:33:00,
2013-01-17 05:43:00,64.0,59.0,-100.00,East,86,2.0,6.0,85,0.00,,,0.00,0.000000,,2013-01-17 15:43:00,
2013-01-17 05:53:00,64.0,59.0,-100.00,East,86,2.0,6.0,85,0.00,,,0.00,0.000000,,2013-01-17 15:53:00,
2013-01-17 06:02:00,64.0,59.0,-100.00,East,86,2.0,6.0,85,0.00,,,0.00,0.000000,,2013-01-17 16:02:00,
2013-01-17 06:12:00,64.0,59.0,-100.00,East,86,2.0,6.0,85,0.00,,,0.00,0.000000,,2013-01-17 16:12:00,
2013-01-17 06:44:00,64.0,59.0,-100.00,East,90,3.0,6.0,85,0.00,,,0.00,0.000000,,2013-01-17 16:44:00,
2013-01-17 06:53:00,64.0,59.0,-100.00,East,90,3.0,6.0,85,0.00,,,0.00,0.000000,,2013-01-17 16:53:00,
2013-01-17 07:02:00,64.0,59.0,-100.00,East,90,3.0,6.0,85,0.00,,,0.00,0.000000,,2013-01-17 17:02:00,
2013-01-17 07:12:00,64.0,59.0,-100.00,East,90,3.0,6.0,85,0.00,,,0.00,0.000000,,2013-01-17 17:12:00,
2013-01-17 07:33:00,65.0,59.0,-100.00,ENE,71,4.0,6.0,81,0.00,,,0.00,2.000000,,2013-01-17 17:33:00,
2013-01-17 07:43:00,65.0,59.0,-100.00,ENE,71,4.0,6.0,81,0.00,,,0.00,2.000000,,2013-01-17 17:43:00,
2013-01-17 07:53:00,65.0,59.0,-100.00,ENE,71,4.0,6.0,81,0.00,,,0.00,2.000000,,2013-01-17 17:53:00,
2013-01-17 08:03:00,65.0,59.0,-100.00,ENE,71,4.0,6.0,81,0.00,,,0.00,2.000000,,2013-01-17 18:03:00,
2013-01-17 08:12:00,65.0,59.0,-100.00,ENE,71,4.0,6.0,81,0.00,,,0.00,2.000000,,2013-01-17 18:12:00,
2013-01-17 08:34:00,74.0,61.0,-100.00,ENE,68,4.0,7.0,65,0.00,,,-99.99,100.000000,,2013-01-17 18:34:00,
2013-01-17 08:44:00,74.0,61.0,-100.00,ENE,68,4.0,7.0,65,0.00,,,-99.99,100.000000,,2013-01-17 18:44:00,
2013-01-17 08:53:00,74.0,61.0,-100.00,ENE,68,4.0,7.0,65,0.00,,,-99.99,100.000000,,2013-01-17 18:53:00,
2013-01-17 09:03:00,74.0,61.0,-100.00,ENE,68,4.0,7.0,65,0.00,,,-99.99,100.000000,,2013-01-17 19:03:00,
2013-01-17 09:12:00,74.0,61.0,-100.00,ENE,68,4.0,7.0,65,0.00,,,-99.99,100.000000,,2013-01-17 19:12:00,
2013-01-17 09:43:00,79.0,65.0,-100.00,SSW,192,3.0,6.0,62,0.00,,,0.00,336.000000,,2013-01-17 19:43:00,
2013-01-17 09:53:00,79.0,65.0,-100.00,SSW,192,3.0,6.0,62,0.00,,,0.00,336.000000,,2013-01-17 19:53:00,
2013-01-17 10:02:00,79.0,65.0,-100.00,SSW,192,3.0,6.0,62,0.00,,,0.00,336.000000,,2013-01-17 20:02:00,
2013-01-17 10:12:00,79.0,65.0,-100.00,SSW,192,3.0,6.0,62,0.00,,,0.00,336.000000,,2013-01-17 20:12:00,
2013-01-17 10:43:00,79.0,64.0,-100.00,SSW,213,5.0,9.0,60,0.00,,,0.00,578.000000,,2013-01-17 20:43:00,
2013-01-17 10:53:00,79.0,64.0,-100.00,SSW,213,5.0,9.0,60,0.00,,,0.00,578.000000,,2013-01-17 20:53:00,
2013-01-17 11:02:00,79.0,64.0,-100.00,SSW,213,5.0,9.0,60,0.00,,,0.00,578.000000,,2013-01-17 21:02:00,
2013-01-17 11:12:00,79.0,64.0,-100.00,SSW,213,5.0,9.0,60,0.00,,,0.00,578.000000,,2013-01-17 21:12:00,
2013-01-17 11:34:00,78.0,62.0,-100.00,WSW,258,7.0,10.0,59,0.00,,,0.00,721.000000,,2013-01-17 21:34:00,
2013-01-17 11:43:00,78.0,62.0,-100.00,WSW,258,7.0,10.0,59,0.00,,,0.00,721.000000,,2013-01-17 21:43:00,
2013-01-17 11:53:00,78.0,62.0,-100.00,WSW,258,7.0,10.0,59,0.00,,,0.00,721.000000,,2013-01-17 21:53:00,
2013-01-17 12:03:00,78.0,62.0,-100.00,WSW,258,7.0,10.0,59,0.00,,,0.00,721.000000,,2013-01-17 22:03:00,
2013-01-17 12:12:00,78.0,62.0,-100.00,WSW,258,7.0,10.0,59,0.00,,,0.00,721.000000,,2013-01-17 22:12:00,
2013-01-17 12:33:00,79.0,64.0,-100.00,West,259,7.0,11.0,61,0.00,,,0.00,760.000000,,2013-01-17 22:33:00,
2013-01-17 12:43:00,79.0,64.0,-100.00,West,259,7.0,11.0,61,0.00,,,0.00,760.000000,,2013-01-17 22:43:00,
2013-01-17 12:52:00,79.0,64.0,-100.00,West,259,7.0,11.0,61,0.00,,,0.00,760.000000,,2013-01-17 22:52:00,
2013-01-17 13:02:00,79.0,64.0,-100.00,West,259,7.0,11.0,61,0.00,,,0.00,760.000000,,2013-01-17 23:02:00,
2013-01-17 13:12:00,79.0,64.0,-100.00,West,259,7.0,11.0,61,0.00,,,0.00,760.000000,,2013-01-17 23:12:00,
2013-01-17 13:43:00,80.0,65.0,-100.00,WSW,254,7.0,11.0,60,0.00,,,0.00,958.000000,,2013-01-17 23:43:00,
2013-01-17 13:53:00,80.0,65.0,-100.00,WSW,254,7.0,11.0,60,0.00,,,0.00,958.000000,,2013-01-17 23:53:00,
2013-01-17 14:02:00,80.0,65.0,-100.00,WSW,254,7.0,11.0,60,0.00,,,0.00,958.000000,,2013-01-18 00:02:00,
2013-01-17 14:12:00,80.0,65.0,-100.00,WSW,254,7.0,11.0,60,0.00,,,0.00,958.000000,,2013-01-18 00:12:00,
2013-01-17 14:43:00,80.0,63.0,-100.00,WSW,256,6.0,11.0,57,0.00,,,0.00,902.000000,,2013-01-18 00:43:00,
2013-01-17 14:53:00,80.0,63.0,-100.00,WSW,256,6.0,11.0,57,0.00,,,0.00,902.000000,,2013-01-18 00:53:00,
2013-01-17 15:02:00,80.0,63.0,-100.00,WSW,256,6.0,11.0,57,0.00,,,0.00,902.000000,,2013-01-18 01:02:00,
2013-01-17 15:12:00,80.0,63.0,-100.00,WSW,256,6.0,11.0,57,0.00,,,0.00,902.000000,,2013-01-18 01:12:00,
2013-01-17 15:33:00,79.0,63.0,-100.00,West,263,6.0,10.0,58,0.00,,,0.00,771.000000,,2013-01-18 01:33:00,
2013-01-17 15:43:00,79.0,63.0,-100.00,West,263,6.0,10.0,58,0.00,,,0.00,771.000000,,2013-01-18 01:43:00,
2013-01-17 15:53:00,79.0,63.0,-100.00,West,263,6.0,10.0,58,0.00,,,0.00,771.000000,,2013-01-18 01:53:00,
2013-01-17 16:02:00,79.0,63.0,-100.00,West,263,6.0,10.0,58,0.00,,,0.00,771.000000,,2013-01-18 02:02:00,
2013-01-17 16:12:00,79.0,63.0,-100.00,West,263,6.0,10.0,58,0.00,,,0.00,771.000000,,2013-01-18 02:12:00,
2013-01-17 16:43:00,79.0,62.0,-100.00,WNW,286,7.0,10.0,56,0.00,,,0.00,576.000000,,2013-01-18 02:43:00,
2013-01-17 16:53:00,79.0,62.0,-100.00,WNW,286,7.0,10.0,56,0.00,,,0.00,576.000000,,2013-01-18 02:53:00,
2013-01-17 17:02:00,79.0,62.0,-100.00,WNW,286,7.0,10.0,56,0.00,,,0.00,576.000000,,2013-01-18 03:02:00,
2013-01-17 17:12:00,79.0,62.0,-100.00,WNW,286,7.0,10.0,56,0.00,,,0.00,576.000000,,2013-01-18 03:12:00,
2013-01-17 17:33:00,77.0,62.0,-100.00,West,279,8.0,11.0,59,0.00,,,0.00,337.000000,,2013-01-18 03:33:00,
2013-01-17 17:43:00,77.0,62.0,-100.00,West,279,8.0,11.0,59,0.00,,,0.00,337.000000,,2013-01-18 03:43:00,
2013-01-17 17:52:00,77.0,62.0,-100.00,West,279,8.0,11.0,59,0.00,,,0.00,337.000000,,2013-01-18 03:52:00,
2013-01-17 18:02:00,77.0,62.0,-100.00,West,279,8.0,11.0,59,0.00,,,0.00,337.000000,,2013-01-18 04:02:00,
2013-01-17 18:12:00,77.0,62.0,-100.00,West,279,8.0,11.0,59,0.00,,,0.00,337.000000,,2013-01-18 04:12:00,
2013-01-17 18:33:00,74.0,62.0,-100.00,WNW,301,6.0,9.0,66,0.00,,,0.00,98.000000,,2013-01-18 04:33:00,
2013-01-17 18:42:00,74.0,62.0,-100.00,WNW,301,6.0,9.0,66,0.00,,,0.00,98.000000,,2013-01-18 04:42:00,
2013-01-17 18:53:00,74.0,62.0,-100.00,WNW,301,6.0,9.0,66,0.00,,,0.00,98.000000,,2013-01-18 04:53:00,
2013-01-17 19:03:00,74.0,62.0,-100.00,WNW,301,6.0,9.0,66,0.00,,,0.00,98.000000,,2013-01-18 05:03:00,
2013-01-17 19:12:00,74.0,62.0,-100.00,WNW,301,6.0,9.0,66,0.00,,,0.00,98.000000,,2013-01-18 05:12:00,
2013-01-17 19:33:00,73.0,62.0,-100.00,NNW,343,5.0,9.0,69,0.00,,,-99.99,0.000000,,2013-01-18 05:33:00,
2013-01-17 19:43:00,73.0,62.0,-100.00,NNW,343,5.0,9.0,69,0.00,,,-99.99,0.000000,,2013-01-18 05:43:00,
2013-01-17 19:53:00,73.0,62.0,-100.00,NNW,343,5.0,9.0,69,0.00,,,-99.99,0.000000,,2013-01-18 05:53:00,
2013-01-17 20:02:00,73.0,62.0,-100.00,NNW,343,5.0,9.0,69,0.00,,,-99.99,0.000000,,2013-01-18 06:02:00,
2013-01-17 20:12:00,73.0,62.0,-100.00,NNW,343,5.0,9.0,69,0.00,,,-99.99,0.000000,,2013-01-18 06:12:00,
2013-01-17 20:33:00,71.0,62.0,-100.00,NNE,14,5.0,7.0,72,0.00,,,0.00,0.000000,,2013-01-18 06:33:00,
2013-01-17 20:43:00,71.0,62.0,-100.00,NNE,14,5.0,7.0,72,0.00,,,0.00,0.000000,,2013-01-18 06:43:00,
2013-01-17 20:52:00,71.0,62.0,-100.00,NNE,14,5.0,7.0,72,0.00,,,0.00,0.000000,,2013-01-18 06:52:00,
2013-01-17 21:02:00,71.0,62.0,-100.00,NNE,14,5.0,7.0,72,0.00,,,0.00,0.000000,,2013-01-18 07:02:00,
2013-01-17 21:12:00,71.0,62.0,-100.00,NNE,14,5.0,7.0,72,0.00,,,0.00,0.000000,,2013-01-18 07:12:00,
2013-01-17 21:33:00,71.0,62.0,-100.00,NNE,14,4.0,6.0,74,0.00,,,0.00,0.000000,,2013-01-18 07:33:00,
2013-01-17 21:42:00,71.0,62.0,-100.00,NNE,14,4.0,6.0,74,0.00,,,0.00,0.000000,,2013-01-18 07:42:00,
2013-01-17 21:52:00,71.0,62.0,-100.00,NNE,14,4.0,6.0,74,0.00,,,0.00,0.000000,,2013-01-18 07:52:00,
2013-01-17 22:02:00,71.0,62.0,-100.00,NNE,14,4.0,6.0,74,0.00,,,0.00,0.000000,,2013-01-18 08:02:00,
2013-01-17 22:11:00,71.0,62.0,-100.00,NNE,14,4.0,6.0,74,0.00,,,0.00,0.000000,,2013-01-18 08:11:00,
2013-01-17 22:43:00,69.0,60.0,-100.00,NNE,19,4.0,6.0,73,0.00,,,0.00,0.000000,,2013-01-18 08:43:00,
2013-01-17 22:53:00,69.0,60.0,-100.00,NNE,19,4.0,6.0,73,0.00,,,0.00,0.000000,,2013-01-18 08:53:00,
2013-01-17 23:02:00,69.0,60.0,-100.00,NNE,19,4.0,6.0,73,0.00,,,0.00,0.000000,,2013-01-18 09:02:00,
2013-01-17 23:12:00,69.0,60.0,-100.00,NNE,19,4.0,6.0,73,0.00,,,0.00,0.000000,,2013-01-18 09:12:00,
2013-01-17 23:42:00,69.0,61.0,-100.00,NNE,24,3.0,5.0,76,0.00,,,0.00,0.000000,,2013-01-18 09:42:00,
2013-01-17 23:52:00,69.0,61.0,-100.00,NNE,24,3.0,5.0,76,0.00,,,0.00,0.000000,,2013-01-18 09:52:00,